Theta_e
325 330 333 334 333 328 329 336 339 338 336 339 342 340 336 336 335 338 338 342 340 338 333 331 327 324 324 322 321 317 313 308 308 309 309 310 311 310 310 311 313 313 310 309
328 330 328 326 324 329 334 339 340 336 335 339 340 341 339 338 338 337 336 337 340 338 335 332 330 324 324 323 320 317 314 310 309 311 311 311 311 311 311 313 313 310 309 309
330 329 325 330 334 336 337 339 339 339 337 337 338 340 339 336 336 336 337 335 336 339 337 333 331 325 324 323 320 317 314 313 310 312 311 311 311 312 312 311 311 310 309 310
329 325 329 331 332 333 336 333 337 338 338 341 336 338 337 337 336 334 338 334 337 339 338 336 332 325 324 323 320 317 315 314 312 311 312 312 311 312 311 310 311 310 309 310
329 327 328 331 331 332 336 335 336 334 338 339 339 339 336 335 336 336 335 335 336 339 339 337 334 326 324 323 321 317 315 314 312 311 312 313 314 314 312 311 311 310 309 310
326 325 326 331 332 334 332 334 333 332 335 338 338 339 340 340 336 335 334 335 335 337 339 337 334 326 324 324 321 317 315 314 312 311 313 314 314 314 313 311 311 310 309 309
329 329 331 332 333 331 333 337 338 338 339 340 338 340 339 336 335 334 335 335 334 335 336 336 331 325 324 323 320 318 316 314 313 311 312 314 314 314 313 311 311 310 309 309
330 331 333 328 334 336 336 334 335 335 336 335 337 342 340 335 333 333 333 336 335 337 335 334 328 325 324 323 319 318 316 314 314 310 312 312 313 314 313 311 311 310 309 309
332 332 331 330 328 333 334 333 330 338 336 339 338 339 337 334 335 334 334 336 336 336 336 332 325 325 324 322 318 318 316 314 314 313 313 313 312 312 314 313 311 310 309 309
332 333 333 330 329 328 331 327 332 335 336 335 337 340 339 339 338 335 333 333 334 333 331 330 325 324 323 321 318 318 317 314 314 314 313 313 312 312 313 314 313 310 309 308
332 336 335 333 333 332 330 332 330 334 336 334 335 332 339 339 338 338 334 333 332 331 329 327 325 324 323 321 318 318 318 315 314 314 314 314 313 312 312 313 314 312 310 308
332 338 338 334 331 330 329 330 333 333 336 337 337 336 332 336 335 335 335 331 330 330 328 325 325 324 323 321 318 318 318 314 314 314 314 314 314 313 313 312 314 313 311 309
335 337 337 335 333 331 334 329 330 333 336 341 336 333 333 335 335 334 334 330 328 328 326 325 325 324 323 321 318 317 317 313 313 314 315 314 314 314 313 313 314 314 313 311
331 335 339 336 334 331 335 330 330 336 338 336 336 336 335 338 337 335 333 332 329 326 326 325 325 324 323 321 318 317 317 314 314 314 315 315 314 314 314 313 314 315 313 312
335 338 332 330 330 332 332 331 330 333 335 334 333 335 336 337 338 336 335 332 328 326 326 325 325 324 323 322 320 316 317 315 315 315 315 314 314 314 314 313 314 314 313 313
330 336 334 334 333 333 334 332 330 331 332 333 336 337 334 335 334 333 333 331 329 327 327 326 325 324 323 322 321 316 316 315 316 316 314 314 314 315 313 314 313 314 314 315
336 337 336 334 334 334 334 333 332 332 333 335 336 336 335 336 335 336 334 331 331 329 327 326 325 324 323 323 321 314 315 315 316 316 315 314 314 315 314 314 314 314 314 314
335 336 333 332 336 331 332 333 333 334 335 335 335 335 334 335 334 332 332 332 331 330 328 326 325 324 323 323 320 314 314 315 315 316 314 313 314 315 314 314 314 314 313 313
332 336 336 336 334 333 334 334 335 336 337 334 335 333 333 332 332 335 330 331 331 330 327 325 325 324 323 323 320 313 314 315 316 315 313 313 313 314 314 314 313 313 313 313
334 335 336 336 336 336 336 334 332 332 336 331 332 334 334 333 331 333 328 328 329 330 329 326 324 324 323 323 316 313 314 315 315 315 312 313 313 313 313 314 313 313 313 313
340 340 340 337 340 338 335 332 331 337 338 330 330 332 332 334 331 329 326 328 328 327 325 325 324 324 323 319 318 315 314 313 314 313 311 312 313 313 314 314 314 315 315 315
342 345 345 342 341 337 333 333 335 337 332 331 329 328 329 329 329 323 327 326 326 326 325 323 323 322 320 319 320 318 316 315 313 312 312 311 311 312 314 315 315 316 316 316
338 337 341 340 337 333 331 334 332 333 333 331 329 329 328 328 328 323 326 326 326 326 324 322 320 321 320 321 321 321 319 317 317 315 314 316 317 317 316 314 313 314 316 316
334 331 336 336 335 333 333 332 334 334 333 330 330 327 324 325 325 322 324 326 326 326 325 323 321 321 321 322 322 322 322 321 322 320 320 321 321 320 320 320 320 320 318 316
332 333 335 336 334 333 334 333 333 332 331 329 328 327 323 325 324 323 322 324 325 326 326 324 323 323 322 322 322 322 323 323 323 322 322 321 322 322 322 322 322 321 321 321
332 335 334 334 333 337 335 333 331 330 329 329 329 328 327 324 324 324 324 325 326 326 326 325 324 323 323 322 321 321 322 322 323 322 322 321 321 320 321 321 322 322 322 322
Wind_Speed
3 6 6 12 14 2 3 6 8 2 3 2 4 9 13 13 11 9 8 9 10 9 8 5 5 4 8 13 15 18 19 16 11 10 11 12 14 13 13 15 17 20 22 23
3 2 2 5 5 7 9 14 6 5 2 0 5 4 8 9 7 11 11 12 12 11 11 9 8 5 7 11 11 14 17 16 13 13 13 14 14 14 14 16 18 20 22 23
3 3 1 5 12 13 6 3 8 5 7 6 5 3 7 6 9 11 13 13 14 15 13 12 10 8 7 8 9 12 14 14 12 12 13 14 13 13 13 15 18 21 23 23
2 1 6 10 5 2 5 2 9 13 5 1 2 2 6 7 9 11 14 16 16 16 16 13 13 11 8 6 7 10 12 13 13 9 10 13 14 14 16 16 18 20 22 21
2 2 3 4 3 3 4 10 11 6 4 2 4 4 3 2 10 13 17 17 16 16 17 17 15 13 7 6 7 9 11 11 12 7 9 12 13 14 15 15 15 19 20 20
2 1 3 4 9 6 19 10 6 4 1 3 2 3 3 6 10 8 16 21 19 18 19 16 15 14 8 6 7 7 9 9 12 7 8 10 11 12 13 14 15 19 19 19
3 3 4 16 12 7 3 6 2 2 3 2 3 3 7 7 10 9 13 17 17 18 16 15 17 13 8 7 6 6 8 7 10 8 7 8 10 11 13 14 15 18 18 19
2 3 6 5 3 6 13 2 3 3 2 1 3 5 1 2 6 9 11 16 16 17 17 17 16 12 7 7 5 5 7 4 7 7 7 8 9 10 12 13 14 16 17 18
4 2 1 1 4 5 6 5 3 6 1 3 1 4 9 3 3 7 9 14 17 20 20 19 17 12 8 6 5 5 7 3 4 6 7 9 9 9 10 12 13 14 15 16
5 3 2 4 5 9 3 8 2 1 1 2 3 4 4 4 6 8 10 14 17 16 17 20 16 11 9 5 6 5 7 6 3 4 6 8 9 9 9 11 12 13 14 14
5 1 2 3 3 5 4 3 5 2 2 1 2 3 5 6 6 11 15 16 17 18 19 20 17 13 9 7 6 6 7 7 6 5 6 7 8 10 9 10 11 11 12 13
2 3 3 3 1 2 1 1 4 3 2 0 2 4 0 3 4 12 14 14 15 17 18 17 17 14 11 8 6 7 7 6 6 7 7 7 8 9 11 10 10 10 11 12
7 1 3 1 2 2 3 3 3 4 2 5 3 3 2 4 6 9 14 15 17 20 19 19 19 15 12 8 7 7 6 5 6 7 8 10 9 10 11 10 8 9 10 11
8 3 4 6 2 2 3 4 5 3 3 4 7 7 4 5 5 9 13 16 18 22 21 21 20 16 14 10 9 7 6 4 3 5 8 11 11 11 11 10 8 9 9 10
1 3 2 2 1 2 4 5 9 10 7 7 4 5 2 3 8 11 12 13 16 19 22 25 23 18 15 12 11 9 7 6 4 5 9 9 9 11 10 8 7 7 7 9
1 2 2 3 2 1 4 3 5 9 5 9 4 6 6 3 3 7 10 13 18 20 23 26 23 19 16 12 10 10 9 6 7 6 8 8 8 9 8 7 8 7 7 9
2 4 2 2 2 1 4 3 3 4 4 4 6 1 2 4 8 10 11 14 20 21 20 24 24 20 14 11 9 9 8 8 8 7 8 8 8 8 7 9 10 8 8 11
4 4 1 1 1 3 2 2 6 8 7 8 2 2 5 4 6 9 8 12 17 20 20 19 19 19 14 12 10 9 9 8 9 9 9 9 8 8 9 11 12 9 10 12
1 4 3 2 2 4 1 1 1 2 3 4 4 2 1 2 4 5 10 9 12 16 16 11 15 15 13 11 9 9 9 8 8 8 9 9 9 9 9 10 11 12 12 13
6 4 2 3 3 3 3 3 6 6 4 4 6 3 4 1 4 4 12 9 8 7 7 7 11 13 13 9 9 9 8 8 8 8 9 9 10 10 10 9 8 9 13 16
1 2 3 3 3 4 4 1 0 4 2 5 4 1 4 2 2 5 6 5 5 7 9 7 9 9 4 7 7 7 8 8 6 8 8 9 10 11 12 13 14 15 18 20
4 5 3 3 2 5 1 3 3 2 5 3 9 7 8 6 1 2 4 7 9 9 7 2 5 7 8 7 5 5 7 4 8 8 8 9 11 13 14 16 16 18 21 24
3 2 2 6 1 1 4 3 4 6 8 9 6 6 8 7 4 4 5 9 8 7 6 3 3 5 7 7 6 8 3 6 7 8 10 11 13 14 15 18 20 21 23 24
3 3 2 2 3 5 4 9 10 9 8 5 4 9 9 10 9 10 11 12 10 9 8 5 4 4 6 9 10 10 9 11 15 17 17 19 20 21 21 23 24 24 24 25
2 4 1 3 6 5 4 3 2 3 6 5 6 8 9 11 13 13 13 14 13 11 10 7 6 5 5 8 11 13 16 19 23 25 27 28 29 29 29 28 30 31 30 28
5 2 2 2 4 1 3 4 5 4 2 5 6 9 11 13 16 15 15 15 15 13 12 10 10 8 7 9 13 13 15 19 21 27 31 31 31 32 34 35 34 33 34 32
Wind_Direction
48 157 178 195 238 291 229 147 125 93 65 117 107 170 177 188 200 215 220 210 207 202 205 228 268 327 354 359 3 11 15 21 28 29 29 26 21 22 21 18 16 9 3 358
141 79 155 131 165 153 151 131 113 110 55 156 145 170 208 211 216 219 227 216 215 203 218 228 254 289 333 339 358 8 13 21 27 32 27 21 18 23 22 16 11 7 4 2
138 67 273 138 134 108 123 135 165 136 119 72 150 217 218 218 225 229 233 232 219 214 216 230 247 269 294 325 348 1 12 20 22 28 26 26 28 25 15 12 9 7 4 3
121 72 96 107 108 142 154 202 142 134 178 155 312 297 235 216 237 230 222 210 207 213 220 228 242 258 272 308 340 349 7 13 14 24 28 30 28 19 10 6 5 3 1 2
79 36 130 107 57 87 97 138 119 122 91 167 196 260 127 224 248 239 227 217 212 210 213 226 238 248 257 298 326 342 360 4 4 18 24 22 21 15 11 5 2 2 2 3
61 81 47 82 54 126 135 114 87 98 113 266 126 276 203 186 222 237 222 224 220 213 211 216 229 239 245 280 312 332 351 355 4 11 11 13 10 7 6 3 5 6 9 10
63 35 68 126 102 128 154 153 131 241 216 260 121 234 274 193 210 224 216 215 213 210 212 208 219 230 235 264 299 325 342 347 3 5 6 6 2 1 2 4 7 9 12 11
126 136 182 166 185 185 177 222 267 273 237 77 159 242 7 225 269 239 212 203 198 199 213 206 214 221 229 253 295 312 329 326 5 13 9 360 358 358 1 5 6 6 7 8
159 197 197 313 145 160 175 212 90 107 13 243 227 271 266 239 220 210 190 191 196 207 215 208 210 217 232 249 298 296 309 289 349 10 10 5 359 358 359 3 3 4 6 7
181 152 182 163 126 57 221 132 190 130 157 294 228 281 276 257 219 205 206 208 209 209 198 205 209 218 228 246 268 274 297 273 279 346 358 4 6 360 358 359 360 0 3 7
144 187 156 209 206 179 153 170 73 91 317 265 272 297 216 253 232 215 218 213 212 203 195 207 210 213 221 239 257 266 286 266 269 293 329 345 358 5 354 350 350 354 357 1
136 128 199 178 62 341 111 165 166 246 207 88 313 274 198 227 259 227 225 222 215 207 200 208 214 214 220 228 251 261 279 268 260 272 293 315 330 341 345 340 339 345 347 352
178 144 134 120 173 132 229 168 129 110 145 189 246 291 187 254 259 235 216 212 213 208 207 211 216 212 223 228 244 247 277 265 258 272 287 291 309 319 330 335 331 337 338 340
144 136 179 210 152 125 199 200 187 190 217 194 242 294 255 220 223 221 215 214 212 211 211 213 216 215 223 232 245 244 263 254 283 285 289 290 292 302 312 320 320 331 333 335
113 149 182 154 171 223 257 227 196 210 234 229 279 219 309 244 222 223 224 214 209 212 215 221 217 219 222 232 246 247 249 257 285 297 301 290 287 297 299 312 317 324 336 341
112 136 176 139 85 6 263 251 234 241 224 250 250 263 224 287 223 219 225 215 218 221 225 225 218 220 222 235 247 249 247 254 273 297 298 276 286 298 283 297 311 310 321 326
86 138 131 227 346 326 269 277 240 233 238 236 222 153 164 242 240 250 241 226 228 231 229 228 219 224 225 236 245 252 249 251 270 287 288 280 284 302 287 280 295 294 303 313
127 104 57 167 234 234 14 334 276 263 268 212 276 27 296 275 283 283 276 249 248 245 239 234 227 225 222 230 246 246 249 255 270 279 281 277 275 285 285 290 291 273 289 305
352 134 115 217 223 315 226 157 234 221 343 191 215 285 14 340 321 329 349 304 277 261 257 258 232 223 225 233 251 252 248 256 271 283 285 274 269 272 279 291 293 271 276 294
75 71 190 162 208 257 227 231 225 175 258 193 207 180 179 180 312 358 348 324 299 271 241 222 203 216 225 240 259 255 248 260 274 289 290 280 272 272 269 276 279 275 282 291
116 40 182 158 219 267 278 207 311 234 8 335 311 313 171 223 272 323 25 43 100 117 134 161 207 216 222 234 255 259 254 260 259 272 283 286 283 281 278 278 283 285 288 293
203 167 171 125 192 273 141 162 242 117 117 342 264 233 214 215 267 34 102 125 129 132 137 139 202 213 222 219 240 259 268 243 250 268 281 288 287 286 285 286 291 293 294 296
225 244 260 203 205 237 195 213 293 266 253 261 257 244 232 218 218 187 175 163 151 159 164 141 163 202 224 235 248 265 281 258 262 269 277 281 287 293 295 294 297 297 297 297
218 194 252 234 169 245 264 264 271 261 249 254 277 246 231 222 213 204 189 184 185 196 196 185 178 207 239 256 272 284 274 272 276 281 283 286 287 294 295 295 295 297 299 300
16 159 232 270 262 291 265 267 277 206 186 248 281 269 268 233 225 222 210 196 196 204 211 218 225 234 255 269 281 286 291 287 287 290 293 293 292 295 298 297 297 295 297 297
191 186 227 2 341 350 116 89 101 120 53 352 331 314 306 272 252 243 226 214 221 227 225 235 248 262 273 288 292 312 308 295 291 301 300 299 301 302 300 300 301 302 303 301